Location: DaVinci Observatory
(43.1080°N, 78.6453°W)
Time: 09:14:06
(UTC-05:00)

N. Korean satellite - Pass Details

Date: 09 October 2017
Orbit: 461 x 513 km, 97.2° (Epoch: 14 December)

Event Time Altitude Azimuth Distance (km) Brightness Sun altitude
Rises 19:48:58 0° 188° (S) 2,567 10.3 -13.2°
Reaches altitude 10° 19:51:12 10° 199° (SSW) 1,681 9.5 -13.6°
Maximum altitude 19:54:28 31° 263° (W) 873 8.6 -14.2°
Drops below altitude 10° 19:57:41 10° 327° (NNW) 1,666 9.8 -14.7°
Sets 19:59:54 0° 338° (NNW) 2,541 10.6 -15.1°
